This demonstration page uses our WeatherBlox Daily Observations layout. Learn more.

Left ArrowRight Arrow

34.16533, -84.80231

Hourly Observations for June 28, 2022

Temp ( °F °C ) Dew Point ( °F °C ) Humidity (%) Winds ( mph kmh ) Pressure ( in mb ) Visibility ( mi km ) Precip ( " mm )
12:15 am 00:15 Partly Cloudy 72 22 70 21 94 94 Calm 30.09 1019 10 16 0.00 0.00
12:35 am 00:35 Partly Cloudy 72 22 70 21 94 94 Calm 30.09 1019 10 16 0.00 0.00
12:55 am 00:55 Mostly Clear 70 21 70 21 100 100 Calm 30.08 1019 10 16 0.00 0.00
1:15 am 01:15 Clear 72 22 70 21 94 94 Calm 30.08 1019 10 16 0.00 0.00
1:35 am 01:35 Clear 72 22 70 21 94 94 Calm 30.08 1019 10 16 0.00 0.00
1:55 am 01:55 Clear 70 21 68 20 94 94 Calm 30.08 1019 10 16 0.00 0.00
2:15 am 02:15 Clear 72 22 64 18 78 78 WSW 3 6 30.08 1019 10 16 0.00 0.00
2:35 am 02:35 Clear 70 21 68 20 94 94 Calm 30.08 1019 10 16 0.00 0.00
2:55 am 02:55 Clear 72 22 63 17 73 73 WSW 5 7 30.07 1018 10 16 0.00 0.00
3:15 am 03:15 Clear 72 22 63 17 73 73 Calm 30.07 1018 10 16 0.00 0.00
3:35 am 03:35 Partly Cloudy 70 21 64 18 83 83 Calm 30.07 1018 10 16 0.00 0.00
3:55 am 03:55 Partly Cloudy 70 21 64 18 83 83 Calm 30.08 1019 10 16 0.00 0.00
4:15 am 04:15 Mostly Cloudy 70 21 64 18 83 83 Calm 30.08 1019 10 16 0.00 0.00
4:35 am 04:35 Cloudy 70 21 63 17 78 78 Calm 30.08 1019 10 16 0.00 0.00
4:55 am 04:55 Cloudy 70 21 64 18 83 83 Calm 30.08 1019 10 16 0.00 0.00
5:15 am 05:15 Mostly Cloudy 68 20 64 18 88 88 Calm 30.09 1019 10 16 0.00 0.00
5:35 am 05:35 Mostly Cloudy 68 20 64 18 88 88 Calm 30.09 1019 10 16 0.00 0.00
5:55 am 05:55 Cloudy 68 20 64 18 88 88 Calm 30.09 1019 10 16 0.00 0.00
6:15 am 06:15 Cloudy 68 20 64 18 88 88 Calm 30.10 1019 10 16 0.00 0.00
6:35 am 06:35 Cloudy 68 20 63 17 83 83 Calm 30.11 1020 10 16 0.00 0.00
6:55 am 06:55 Mostly Sunny 68 20 63 17 83 83 Calm 30.11 1020 10 16 0.00 0.00
7:15 am 07:15 Sunny 68 20 63 17 83 83 Calm 30.11 1020 10 16 0.00 0.00
7:35 am 07:35 Mostly Sunny 70 21 63 17 78 78 N 5 7 30.12 1020 9 14 0.00 0.00
7:55 am 07:55 Sunny 70 21 63 17 78 78 VRB 3 6 30.13 1020 10 16 0.00 0.00
8:15 am 08:15 Mostly Sunny 70 21 63 17 78 78 NNE 3 6 30.13 1020 10 16 0.00 0.00
8:35 am 08:35 Sunny 72 22 64 18 78 78 Calm 30.13 1020 10 16 0.00 0.00
8:55 am 08:55 Sunny 73 23 64 18 74 74 Calm 30.13 1020 10 16 0.00 0.00
9:15 am 09:15 Mostly Sunny 75 24 66 19 74 74 Calm 30.13 1020 10 16 0.00 0.00
9:35 am 09:35 Mostly Cloudy 75 24 68 20 78 78 NE 3 6 30.13 1020 10 16 0.00 0.00
9:55 am 09:55 Cloudy 77 25 68 20 74 74 ENE 10 17 30.13 1020 10 16 0.00 0.00
10:15 am 10:15 Mostly Cloudy 77 25 70 21 79 79 ENE 12 19 30.13 1020 10 16 0.00 0.00
10:35 am 10:35 Mostly Cloudy 79 26 70 21 74 74 ENE 8 13 30.14 1021 10 16 0.00 0.00
10:55 am 10:55 Mostly Cloudy 79 26 68 20 70 70 NE 9 15 30.14 1021 10 16 0.00 0.00
11:15 am 11:15 Cloudy 79 26 68 20 70 70 ENE 6 9 30.14 1021 10 16 0.00 0.00
11:35 am 11:35 Cloudy 79 26 68 20 70 70 ENE 9 15 30.15 1021 10 16 0.00 0.00
11:55 am 11:55 Mostly Cloudy 81 27 68 20 66 66 E 8 13 30.14 1021 10 16 0.00 0.00
12:15 pm 12:15 Mostly Cloudy 82 28 70 21 66 66 E 6 9 30.14 1021 10 16 0.00 0.00
12:35 pm 12:35 Mostly Cloudy 81 27 68 20 66 66 Calm 30.13 1020 10 16 0.00 0.00
12:55 pm 12:55 Mostly Sunny 82 28 68 20 62 62 E 6 9 30.13 1020 10 16 0.00 0.00
1:15 pm 13:15 Mostly Sunny 82 28 68 20 62 62 ENE 8 13 30.13 1020 10 16 0.00 0.00
1:35 pm 13:35 Mostly Sunny 82 28 68 20 62 62 ENE 6 9 30.13 1020 10 16 0.00 0.00
1:55 pm 13:55 Mostly Sunny 86 30 70 21 59 59 VRB 5 7 30.12 1020 10 16 0.00 0.00
2:15 pm 14:15 Mostly Sunny 84 29 68 20 58 58 E 9 15 30.12 1020 10 16 0.00 0.00
2:35 pm 14:35 Mostly Sunny 84 29 68 20 58 58 VRB 6 9 30.11 1020 10 16 0.00 0.00
2:55 pm 14:55 Partly Cloudy 84 29 68 20 58 58 VRB 6 9 30.10 1019 10 16 0.00 0.00
3:15 pm 15:15 Mostly Cloudy with Nearby Thunderstorms 84 29 68 20 58 58 E 5 7 30.10 1019 10 16 0.00 0.00
3:35 pm 15:35 Partly Cloudy 82 28 68 20 62 62 ESE 6 9 30.09 1019 10 16 0.00 0.00
3:55 pm 15:55 Sunny 82 28 68 20 62 62 VRB 7 11 30.09 1019 10 16 0.00 0.00
4:15 pm 16:15 Sunny 81 27 68 20 66 66 VRB 5 7 30.10 1019 10 16 0.00 0.00
4:35 pm 16:35 Mostly Cloudy with Nearby Thunderstorms 81 27 68 20 66 66 Calm 30.09 1019 10 16 0.00 0.00
4:55 pm 16:55 Mostly Cloudy with Nearby Thunderstorms 81 27 68 20 66 66 Calm 30.09 1019 10 16 0.00 0.00
5:15 pm 17:15 Mostly Cloudy with Light Rain 79 26 70 21 74 74 Calm 30.10 1019 7 11 0.00 0.00
5:35 pm 17:35 Cloudy with Light Rain 75 24 73 23 94 94 Calm 30.11 1020 3 4 0.00 0.00
5:55 pm 17:55 Cloudy with Light Rain 75 24 73 23 94 94 Calm 30.10 1019 3 5 0.08 2.03
6:15 pm 18:15 Cloudy with Light Rain 75 24 73 23 94 94 Calm 30.11 1020 3 4 0.00 0.00
6:35 pm 18:35 Mostly Cloudy with Light Rain 73 23 73 23 100 100 Calm 30.11 1020 3 5 0.00 0.00
6:55 pm 18:55 Partly Cloudy with Light Rain 73 23 73 23 100 100 Calm 30.11 1020 3 5 0.06 1.52
7:15 pm 19:15 Sunny with Light Rain 75 24 72 22 89 89 Calm 30.12 1020 8 13 0.00 0.00
7:35 pm 19:35 Sunny 73 23 72 22 94 94 E 3 6 30.12 1020 10 16 0.00 0.00
7:55 pm 19:55 Sunny 73 23 72 22 94 94 E 5 7 30.12 1020 10 16 0.01 0.25
8:15 pm 20:15 Sunny 73 23 72 22 94 94 Calm 30.12 1020 10 16 0.00 0.00
8:35 pm 20:35 Sunny 73 23 72 22 94 94 Calm 30.12 1020 10 16 0.00 0.00
8:55 pm 20:55 Sunny 73 23 72 22 94 94 Calm 30.11 1020 10 16 0.00 0.00
9:15 pm 21:15 Clear 72 22 70 21 94 94 Calm 30.13 1020 10 16 0.00 0.00
9:35 pm 21:35 Partly Cloudy 72 22 70 21 94 94 Calm 30.13 1020 9 14 0.00 0.00
9:55 pm 21:55 Partly Cloudy 72 22 72 22 100 100 Calm 30.14 1021 8 13 0.00 0.00
10:15 pm 22:15 Mostly Cloudy 72 22 70 21 94 94 Calm 30.15 1021 9 14 0.00 0.00
10:35 pm 22:35 Mostly Cloudy 72 22 70 21 94 94 Calm 30.16 1021 10 16 0.00 0.00
10:55 pm 22:55 Cloudy 73 23 70 21 89 89 Calm 30.16 1021 10 16 0.00 0.00
11:15 pm 23:15 Cloudy 72 22 70 21 94 94 VRB 3 6 30.17 1022 10 16 0.00 0.00
11:35 pm 23:35 Cloudy 72 22 70 21 94 94 Calm 30.17 1022 10 16 0.00 0.00
11:55 pm 23:55 Cloudy 72 22 70 21 94 94 Calm 30.18 1022 10 16 0.00 0.00

Powered by AerisWeather